Location: ???????
(55.3754°N, 39.3545°E)
Time: 07:41:59
(UTC+00:00)

USA 238 - Pass Details

Date: 14 April 2026
Orbit: 883 x 1328 km, 63.4° (Epoch: 10 January)

Event Time Altitude Azimuth Distance (km) Brightness Sun altitude
Rises 17:17:25 0° 307° (NW) 3,868 8.9 -7.5°
Reaches altitude 10° 17:19:58 10° 308° (NW) 2,972 7.7 -7.9°
Maximum altitude 17:27:09 88° 41° (NE) 1,202 4.0 -8.7°
Enters shadow 17:34:48 11° 130° (SE) 3,164 5.5 -9.7°
